Location: Auckland
(36.8670°S, 174.7670°E)
Time: 03:09:32
(UTC+12:00)

NOSS 2-1 (E) - Pass Details

Date: 27 April 2019
Orbit: 471 x 1733 km, 63.3° (Epoch: 21 May)

Event Time Altitude Azimuth Distance (km) Brightness Sun altitude
Rises 19:58:03 0° 224° (SW) 4,892 8.8 -28.0°
Reaches altitude 10° 20:05:55 10° 186° (S) 3,596 7.5 -29.6°
Maximum altitude 20:07:06 10° 178° (S) 3,514 7.4 -29.8°
Drops below altitude 10° 20:08:16 10° 171° (S) 3,474 7.3 -30.0°
Enters shadow 20:10:03 - 158° (SSE) 3,497 7.2 -30.4°
